Location: Bluff Heights
(33.7692°N, 118.1592°W)
Time: 10:43:50
(UTC+00:00)

Tiros 1 - Pass Details

Date: 31 July 2021
Orbit: 630 x 663 km, 48.4° (Epoch: 22 September)

Event Time Altitude Azimuth Distance (km) Brightness Sun altitude
Rises 09:51:56 0° 295° (WNW) 2,934 - -31.5°
Reaches altitude 10° 09:54:38 10° 281° (W) 2,017 - -31.2°
Maximum altitude 09:58:17 23° 229° (SW) 1,343 - -30.8°
Drops below altitude 10° 10:01:54 10° 177° (S) 1,998 - -30.4°
Sets 10:04:35 0° 163° (SSE) 2,899 - -30.1°
